Regional Weather Roundup
Issued by NWS Northern Indiana

Home | Current Version | Previous Version | Text Only | Print | Product List | Glossary Off
Versions: 1 2 3 4 5 6 7 8 9 10 11 12 13 14 15 16 17 18 19 20 21 22 23 24 25 26 27 28 29 30 31 32 33 34 35 36 37 38 39 40 41 42 43 44 45 46 47 48 49 50

000
ASUS43 KIWX 300500
RWRIWX

KIWX WEATHER ROUNDUP
NATIONAL WEATHER SERVICE NORTHERN INDIANA
100 AM EDT FRI SEP 30 2016

NOTE: "FAIR" INDICATES FEW OR NO CLOUDS BELOW 12,000 FEET WITH NO
SIGNIFICANT WEATHER AND/OR OBSTRUCTIONS TO VISIBILITY.

* THESE STATIONS ARE NOT UNDER NWS QUALITY CONTROL. THEY ALSO MAY NOT
  REPORT WEATHER SUCH AS PRECIPITATION OR FOG.

INZ001>027-300600-
NORTHERN INDIANA

CITY           SKY/WX    TMP DP  RH WIND       PRES   REMARKS
SOUTH BEND     CLOUDY    58  57  97 NE13      30.16S
GOSHEN         CLOUDY    60  56  86 NE10      30.13F
ANGOLA*          N/A     59  48  67 NE9       30.12F
FORT WAYNE     CLOUDY    61  58  90 NE9       30.10F
PERU/GRISSOM   CLOUDY    61  61 100 N9        30.08F

$$
INZ028>050-300600-
CENTRAL INDIANA

CITY           SKY/WX    TMP DP  RH WIND       PRES   REMARKS
LAFAYETTE      LGT RAIN  60  59  96 N9        30.10F FOG
KOKOMO*        CLOUDY    61  59  94 NE9       30.10F
MUNCIE*        CLOUDY    61  59  93 NE5       30.08S
INDIANAPOLIS   CLOUDY    61  57  87 NW5       30.08F

$$
MIZ043>046-050>051-056>058-064>065-071>073-077>080-300600-
SOUTHWEST LOWER MICHIGAN

CITY           SKY/WX    TMP DP  RH WIND       PRES   REMARKS
BATTLE CREEK   CLOUDY    59  58  96 NE10      30.18F
BENTON HARBOR  CLOUDY    60  56  86 NE8       30.17F
COLDWATER*     RAIN      59  59  99 NE12      30.15F
HILLSDALE*     CLOUDY    59  55  88 NE8       30.14F FOG
HOLLAND        CLOUDY    60  56  86 NE9       30.21F
GRAND RAPIDS   LGT RAIN  58  55  90 NE13      30.22F FOG
KALAMAZOO      CLOUDY    59  56  89 NE9       30.18F
STURGIS*       LGT RAIN  59  57  93 NE12G18   30.14F
THREE RIVERS*  CLOUDY    60  59  97 NE10      30.16S

$$
OHZ001>008-015>018-024>025-300600-
NORTHWEST OHIO

CITY           SKY/WX    TMP DP  RH WIND       PRES   REMARKS
DEFIANCE       CLOUDY    62  58  86 NE8       30.10F
FINDLAY        CLOUDY    61  57  87 NE9       30.08S
TOLEDO EXPRESS CLOUDY    62  62 100 NE6       30.11F
TOLEDO METCALF LGT RAIN  64  62  93 NE6       30.11F
LIMA           CLOUDY    58  58 100 NE7       30.07F FOG

$$
AND FOR LAKE MICHIGAN COASTAL AND OPEN LAKE BUOY OBSERVATIONS

STATION/POSITION TEMP    WIND        PRES    VSBY  WAVE
                 AIR SEA DIR/SP/G                  HT/PER
                 (F)     (DEG/KT/KT) (MB)    (MI)  (FT/S)
CALUMET HARBOR    62      30/ 13/ 17 1021.7F
MICHIGAN CITY     60      10/ 21/ 23   N/A
BURNS HARBOR      62      50/ 21/ 25 1021.7F
SAINT JOSEPH      58      20/  6/ 12 1022.0F
SOUTH LAKE BUOY   63 68   50/ 21/ 25 1022.7          6/ 5
4 MI NW BRIDGMAN  58 58   20/ 14/ 17 1021.8F         4/ 6
MICHIGAN CITY     61 64   40/ 17/ 23   N/A           6/ 6

$$
&&




USA.gov is the U.S. government's official web portal to all federal, state and local government web resources and services.